| time (UTC) | temp C | wind direction | speed KPH | gust KPH | rain 1hr cm | rain 24hr cm | rain mn cm | humidity % | barometer mb |
| 20260505093121 | 12 | 356 | 4.8 | 9.7 | 0.00 | 0.00 | 0.00 | 80 | 1009.0 |
| 20260505092121 | 12 | 89 | 0.0 | 4.8 | 0.00 | 0.00 | 0.00 | 81 | 1008.9 |
| 20260505091142 | 12 | 202 | 1.6 | 6.4 | 0.00 | 0.00 | 0.00 | 81 | 1008.9 |
| 20260505090121 | 12 | 219 | 1.6 | 4.8 | 0.00 | 0.00 | 0.00 | 80 | 1008.9 |
| 20260505085121 | 12 | 178 | 1.6 | 6.4 | 0.00 | 0.00 | 0.00 | 83 | 1008.8 |
| 20260505084142 | 12 | 145 | 0.0 | 3.2 | 0.00 | 0.00 | 0.00 | 83 | 1008.8 |
| 20260505083121 | 13 | 270 | 0.0 | 1.6 | 0.00 | 0.00 | 0.00 | 82 | 1008.9 |
| 20260505082121 | 13 | 176 | 0.0 | 3.2 | 0.00 | 0.00 | 0.00 | 82 | 1008.8 |
| 20260505081142 | 13 | 30 | 0.0 | 3.2 | 0.00 | 0.00 | 0.00 | 81 | 1008.8 |
| 20260505080121 | 13 | 166 | 0.0 | 1.6 | 0.00 | 0.00 | 0.00 | 79 | 1008.9 |
| 20260505075142 | 13 | 158 | 0.0 | 3.2 | 0.00 | 0.00 | 0.00 | 80 | 1008.7 |
| 20260505074121 | 13 | 153 | 1.6 | 4.8 | 0.00 | 0.00 | 0.00 | 78 | 1008.7 |
| 20260505073121 | 15 | 157 | 1.6 | 4.8 | 0.00 | 0.00 | 0.00 | 73 | 1008.6 |
| 20260505072143 | 15 | 6 | 0.0 | 3.2 | 0.00 | 0.00 | 0.00 | 70 | 1008.6 |
| 20260505071122 | 15 | 243 | 0.0 | 4.8 | 0.00 | 0.00 | 0.00 | 69 | 1008.8 |
| 20260505070121 | 15 | 255 | 0.0 | 1.6 | 0.00 | 0.00 | 0.00 | 66 | 1008.7 |
| 20260505065121 | 15 | 107 | 0.0 | 1.6 | 0.00 | 0.00 | 0.00 | 65 | 1008.9 |
| 20260505064121 | 15 | 51 | 0.0 | 1.6 | 0.00 | 0.00 | 0.00 | 64 | 1008.9 |
| 20260505063121 | 15 | 256 | 0.0 | 3.2 | 0.00 | 0.00 | 0.00 | 65 | 1008.9 |
| 20260505062121 | 14 | 35 | 0.0 | 1.6 | 0.00 | 0.00 | 0.00 | 65 | 1008.9 |
| 20260505061121 | 14 | 144 | 0.0 | 0.0 | 0.00 | 0.00 | 0.00 | 65 | 1008.9 |
| 20260505060121 | 14 | 23 | 0.0 | 1.6 | 0.00 | 0.00 | 0.00 | 65 | 1009.0 |
| 20260505055121 | 13 | 182 | 0.0 | 3.2 | 0.00 | 0.00 | 0.00 | 66 | 1008.9 |
| 20260505054121 | 13 | 110 | 0.0 | 3.2 | 0.00 | 0.00 | 0.00 | 67 | 1008.9 |
| 20260505053142 | 13 | 210 | 0.0 | 3.2 | 0.00 | 0.00 | 0.00 | 67 | 1008.9 |
| 20260505052142 | 13 | 326 | 1.6 | 3.2 | 0.00 | 0.00 | 0.00 | 66 | 1009.0 |
| 20260505051121 | 13 | 175 | 0.0 | 3.2 | 0.00 | 0.00 | 0.00 | 65 | 1009.0 |
| 20260505050121 | 13 | 148 | 0.0 | 3.2 | 0.00 | 0.00 | 0.00 | 63 | 1008.9 |
| 20260505041121 | 15 | 154 | 0.0 | 3.2 | 0.00 | 0.00 | 0.00 | 55 | 1008.9 |
| 20260505040122 | 16 | 237 | 1.6 | 6.4 | 0.00 | 0.00 | 0.00 | 53 | 1008.8 |
| 20260505035121 | 16 | 248 | 1.6 | 6.4 | 0.00 | 0.00 | 0.00 | 52 | 1008.4 |
| 20260505034143 | 16 | 244 | 1.6 | 6.4 | 0.00 | 0.00 | 0.00 | 50 | 1008.5 |
| 20260505033122 | 16 | 174 | 0.0 | 3.2 | 0.00 | 0.00 | 0.00 | 49 | 1008.7 |
| 20260505032122 | 16 | 272 | 1.6 | 6.4 | 0.00 | 0.00 | 0.00 | 48 | 1008.8 |
| 20260505031122 | 16 | 94 | 1.6 | 4.8 | 0.00 | 0.00 | 0.00 | 48 | 1008.8 |
| 20260505030122 | 16 | 251 | 0.0 | 4.8 | 0.00 | 0.00 | 0.00 | 50 | 1008.6 |
| 20260505025122 | 16 | 270 | 0.0 | 1.6 | 0.00 | 0.00 | 0.00 | 50 | 1008.7 |
| 20260505024121 | 16 | 138 | 0.0 | 3.2 | 0.00 | 0.00 | 0.00 | 49 | 1008.7 |
| 20260505023143 | 16 | 33 | 1.6 | 4.8 | 0.00 | 0.00 | 0.00 | 50 | 1008.4 |
| 20260505022122 | 16 | 56 | 0.0 | 3.2 | 0.00 | 0.00 | 0.00 | 50 | 1008.7 |
| 20260505021122 | 16 | 209 | 1.6 | 3.2 | 0.00 | 0.00 | 0.00 | 50 | 1008.9 |
| 20260505020122 | 16 | 311 | 1.6 | 4.8 | 0.00 | 0.00 | 0.00 | 49 | 1009.0 |
| 20260505015121 | 16 | 53 | 1.6 | 3.2 | 0.00 | 0.00 | 0.00 | 50 | 1009.0 |
| 20260505014122 | 16 | 154 | 0.0 | 3.2 | 0.00 | 0.00 | 0.00 | 49 | 1008.9 |
| 20260505013122 | 16 | 138 | 1.6 | 3.2 | 0.00 | 0.00 | 0.00 | 47 | 1008.7 |
| 20260505012122 | 16 | 49 | 0.0 | 3.2 | 0.00 | 0.00 | 0.00 | 48 | 1008.7 |
| 20260505011122 | 16 | 15 | 0.0 | 3.2 | 0.00 | 0.00 | 0.00 | 48 | 1008.7 |
| 20260505010122 | 16 | 336 | 1.6 | 3.2 | 0.00 | 0.00 | 0.00 | 50 | 1008.6 |
| 20260505005122 | 16 | 227 | 0.0 | 1.6 | 0.00 | 0.00 | 0.00 | 49 | 1008.4 |
| 20260505004122 | 17 | 135 | 0.0 | 1.6 | 0.00 | 0.00 | 0.00 | 47 | 1008.4 |
| 20260505003122 | 17 | 132 | 0.0 | 3.2 | 0.00 | 0.00 | 0.00 | 45 | 1008.4 |
| 20260505002120 | 18 | 89 | 0.0 | 3.2 | 0.00 | 0.00 | 0.00 | 42 | 1008.3 |
| 20260505001121 | 19 | 251 | 0.0 | 3.2 | 0.00 | 0.00 | 0.00 | 41 | 1008.2 |
| 20260505000120 | 19 | 241 | 3.2 | 8.0 | 0.00 | 0.00 | 0.00 | 38 | 1008.1 |
| 20260504235120 | 20 | 260 | 1.6 | 8.0 | 0.00 | 0.00 | 0.00 | 38 | 1008.2 |
| 20260504234142 | 20 | 252 | 1.6 | 4.8 | 0.00 | 0.00 | 0.00 | 38 | 1008.1 |
| 20260504233142 | 20 | 258 | 3.2 | 6.4 | 0.00 | 0.00 | 0.00 | 37 | 1008.0 |
| 20260504232121 | 20 | 266 | 3.2 | 9.7 | 0.00 | 0.00 | 0.00 | 36 | 1008.0 |
| 20260504231120 | 21 | 236 | 4.8 | 11.3 | 0.00 | 0.00 | 0.00 | 36 | 1008.1 |
| 20260504230121 | 21 | 256 | 4.8 | 11.3 | 0.00 | 0.00 | 0.00 | 36 | 1008.1 |
| 20260504225121 | 21 | 238 | 3.2 | 6.4 | 0.00 | 0.00 | 0.00 | 36 | 1008.1 |
| 20260504224121 | 21 | 216 | 6.4 | 17.7 | 0.00 | 0.00 | 0.00 | 35 | 1008.0 |
| 20260504223121 | 21 | 257 | 4.8 | 9.7 | 0.00 | 0.00 | 0.00 | 34 | 1008.1 |
| 20260504222121 | 21 | 257 | 3.2 | 12.9 | 0.00 | 0.00 | 0.00 | 34 | 1008.2 |
| 20260504221121 | 21 | 265 | 8.0 | 17.7 | 0.00 | 0.00 | 0.00 | 34 | 1008.1 |
| 20260504220142 | 21 | 210 | 6.4 | 16.1 | 0.00 | 0.00 | 0.00 | 34 | 1008.1 |
| 20260504215121 | 21 | 260 | 4.8 | 9.7 | 0.00 | 0.00 | 0.00 | 33 | 1008.2 |
| 20260504214120 | 21 | 205 | 4.8 | 12.9 | 0.00 | 0.00 | 0.00 | 34 | 1008.2 |
| 20260504213142 | 21 | 232 | 6.4 | 12.9 | 0.00 | 0.00 | 0.00 | 34 | 1008.2 |
| 20260504212121 | 22 | 265 | 4.8 | 9.7 | 0.00 | 0.00 | 0.00 | 34 | 1008.3 |
| 20260504211121 | 21 | 248 | 4.8 | 9.7 | 0.00 | 0.00 | 0.00 | 34 | 1008.2 |
| 20260504210121 | 21 | 210 | 6.4 | 12.9 | 0.00 | 0.00 | 0.00 | 33 | 1008.3 |
| 20260504205121 | 21 | 229 | 8.0 | 22.5 | 0.00 | 0.00 | 0.00 | 34 | 1008.3 |
| 20260504204121 | 22 | 265 | 6.4 | 12.9 | 0.00 | 0.00 | 0.00 | 34 | 1008.2 |
| 20260504203121 | 21 | 206 | 6.4 | 17.7 | 0.00 | 0.00 | 0.00 | 34 | 1008.1 |
| 20260504202121 | 21 | 226 | 6.4 | 11.3 | 0.00 | 0.00 | 0.00 | 35 | 1008.4 |
| 20260504201121 | 21 | 215 | 9.7 | 19.3 | 0.00 | 0.00 | 0.00 | 35 | 1008.4 |
| 20260504200121 | 21 | 225 | 4.8 | 17.7 | 0.00 | 0.00 | 0.00 | 38 | 1008.7 |
| 20260504195121 | 21 | 219 | 9.7 | 20.9 | 0.00 | 0.00 | 0.00 | 35 | 1008.7 |
| 20260504194121 | 21 | 237 | 6.4 | 11.3 | 0.00 | 0.00 | 0.00 | 34 | 1008.8 |
| 20260504193142 | 21 | 244 | 4.8 | 14.5 | 0.00 | 0.00 | 0.00 | 35 | 1008.9 |
| 20260504192121 | 21 | 201 | 8.0 | 20.9 | 0.00 | 0.00 | 0.00 | 36 | 1009.1 |
| 20260504191142 | 21 | 262 | 8.0 | 17.7 | 0.00 | 0.00 | 0.00 | 34 | 1009.4 |
| 20260504190121 | 21 | 207 | 4.8 | 8.0 | 0.00 | 0.00 | 0.00 | 35 | 1009.2 |
| 20260504185142 | 21 | 187 | 6.4 | 16.1 | 0.00 | 0.00 | 0.00 | 35 | 1009.4 |
| 20260504184121 | 21 | 251 | 8.0 | 16.1 | 0.00 | 0.00 | 0.00 | 34 | 1009.3 |
| 20260504183142 | 21 | 247 | 6.4 | 17.7 | 0.00 | 0.00 | 0.00 | 36 | 1009.5 |
| 20260504182121 | 21 | 236 | 8.0 | 17.7 | 0.00 | 0.00 | 0.00 | 34 | 1009.6 |
| 20260504181121 | 20 | 201 | 8.0 | 16.1 | 0.00 | 0.00 | 0.00 | 35 | 1009.9 |
| 20260504180121 | 20 | 220 | 8.0 | 19.3 | 0.00 | 0.00 | 0.00 | 34 | 1010.1 |
| 20260504175121 | 20 | 247 | 8.0 | 19.3 | 0.00 | 0.00 | 0.00 | 34 | 1010.2 |
| 20260504174121 | 20 | 232 | 6.4 | 22.5 | 0.00 | 0.00 | 0.00 | 35 | 1010.3 |
| 20260504173121 | 20 | 187 | 8.0 | 16.1 | 0.00 | 0.00 | 0.00 | 35 | 1010.4 |
| 20260504172121 | 20 | 231 | 6.4 | 16.1 | 0.00 | 0.00 | 0.00 | 35 | 1010.5 |
| 20260504171121 | 20 | 260 | 9.7 | 16.1 | 0.00 | 0.00 | 0.00 | 34 | 1010.9 |
| 20260504170121 | 20 | 252 | 4.8 | 11.3 | 0.00 | 0.00 | 0.00 | 36 | 1010.9 |
| 20260504160121 | 19 | 229 | 8.0 | 20.9 | 0.00 | 0.00 | 0.00 | 35 | 1011.5 |
| 20260504151121 | 18 | 277 | 6.4 | 14.5 | 0.00 | 0.00 | 0.00 | 37 | 1012.0 |
| 20260504150121 | 18 | 262 | 8.0 | 16.1 | 0.00 | 0.00 | 0.00 | 36 | 1012.0 |
| 20260504141121 | 16 | 251 | 4.8 | 11.3 | 0.00 | 0.00 | 0.00 | 46 | 1012.1 |
| 20260504140142 | 16 | 260 | 8.0 | 14.5 | 0.00 | 0.00 | 0.00 | 47 | 1012.1 |
| 20260504130121 | 13 | 198 | 4.8 | 12.9 | 0.00 | 0.00 | 0.00 | 58 | 1012.6 |
| 20260504120121 | 12 | 62 | 1.6 | 3.2 | 0.00 | 0.00 | 0.00 | 58 | 1012.8 |
| 20260504110143 | 7 | 144 | 3.2 | 4.8 | 0.00 | 0.00 | 0.00 | 62 | 1013.0 |
| 20260504100143 | 4 | 332 | 3.2 | 6.4 | 0.00 | 0.00 | 0.00 | 69 | 1013.3 |